This demonstration page uses our WeatherBlox Daily Observations layout. Learn more.

Left ArrowRight Arrow

36.19886, -115.1175

Hourly Observations for October 9, 2020

Temp ( °F °C ) Dew Point ( °F °C ) Humidity (%) Winds ( mph kmh ) Pressure ( in mb ) Visibility ( mi km ) Precip ( " mm )
12:53 am 00:53 Clear 73 22.8 28 -2.2 19 19 WNW 3 6 29.78 1009 10 16 0.00 0.00
1:53 am 01:53 Clear 71 21.7 25 -3.9 18 18 NNW 8 13 29.79 1009 10 16 0.00 0.00
2:53 am 02:53 Clear 69 20.6 25 -3.9 19 19 WNW 6 9 29.79 1009 10 16 0.00 0.00
3:53 am 03:53 Clear 70 21.1 24 -4.4 18 18 N 6 9 29.78 1009 10 16 0.00 0.00
4:53 am 04:53 Clear 67 19.4 25 -3.9 20 20 WNW 3 6 29.81 1009 10 16 0.00 0.00
5:53 am 05:53 Clear 68 20 27 -2.8 21 21 WNW 3 6 29.82 1010 10 16 0.00 0.00
6:53 am 06:53 Sunny 68 20 29 -1.7 23 23 W 3 6 29.83 1010 10 16 0.00 0.00
7:53 am 07:53 Sunny 70 21.1 28 -2.2 21 21 Calm 29.84 1011 10 16 0.00 0.00
8:53 am 08:53 Sunny 75 23.9 27 -2.8 17 17 Calm 29.86 1011 10 16 0.00 0.00
9:53 am 09:53 Sunny 80 26.7 25 -3.9 13 13 Calm 29.86 1011 10 16 0.00 0.00
10:53 am 10:53 Sunny 84 28.9 26 -3.3 12 12 ESE 7 11 29.86 1011 10 16 0.00 0.00
11:53 am 11:53 Sunny 85 29.4 27 -2.8 12 12 SE 8 13 29.85 1011 10 16 0.00 0.00
12:53 pm 12:53 Sunny 87 30.6 25 -3.9 10 10 SE 5 7 29.84 1010 10 16 0.00 0.00
1:53 pm 13:53 Sunny 89 31.7 27 -2.8 11 11 VRB 5 7 29.82 1010 10 16 0.00 0.00
2:53 pm 14:53 Sunny 90 32.2 30 -1.1 12 12 SE 6 9 29.79 1009 10 16 0.00 0.00
3:53 pm 15:53 Sunny 90 32.2 29 -1.7 11 11 SE 9 15 29.77 1008 10 16 0.00 0.00
4:53 pm 16:53 Sunny 90 32.2 28 -2.2 11 11 SE 8 13 29.77 1008 10 16 0.00 0.00
5:53 pm 17:53 Sunny 88 31.1 27 -2.8 11 11 SE 8 13 29.76 1008 10 16 0.00 0.00
6:53 pm 18:53 Clear 86 30 28 -2.2 12 12 E 9 15 29.77 1008 10 16 0.00 0.00
7:53 pm 19:53 Clear 84 28.9 25 -3.9 11 11 ESE 8 13 29.79 1009 10 16 0.00 0.00
8:53 pm 20:53 Clear 81 27.2 25 -3.9 13 13 NE 3 6 29.79 1009 10 16 0.00 0.00
9:53 pm 21:53 Clear 77 25 30 -1.1 18 18 W 8 13 29.80 1009 10 16 0.00 0.00
10:53 pm 22:53 Clear 74 23.3 28 -2.2 18 18 NW 7 11 29.80 1009 10 16 0.00 0.00
11:53 pm 23:53 Clear 72 22.2 28 -2.2 19 19 NW 5 7 29.80 1009 10 16 0.00 0.00

Powered by AerisWeather